Location: pereira
(4.8150°N, 75.7450°W)
Time: 19:09:12
(UTC-04:00)

ISS - Visible Passes

Search period start: 20 August 2017 00:00
Search period end: 30 August 2017 00:00
Orbit: 401 x 408 km, 51.6° (Epoch: 21 August)

Date Brightness Start Highest point End Pass type
(mag) Time Alt. Az. Time Alt. Az. Time Alt. Az.
20 Aug -2.2 20:13:20 10° WNW 20:16:16 32° SW 20:18:41 14° S visible
25 Aug -1.6 05:56:52 10° S 05:59:34 23° SE 06:02:16 10° ENE visible
27 Aug -4.0 05:50:25 47° SW 05:51:14 79° NW 05:54:30 10° NNE visible
28 Aug -0.8 05:01:04 16° ENE 05:01:04 16° ENE 05:01:55 10° ENE visible
29 Aug -1.6 05:44:18 15° NNW 05:44:18 15° NNW 05:45:18 10° N visible
